Powrót do katalogu

FENGYUN 1C DEB

AktywnySSO
NORAD 33722·DEBRIS·🇨🇳 China

Wystrzelony May 10, 1999 z Taiyuan Satellite Launch Center

Loading…

Następne Przeloty (najbliższe 24 godziny)

TLE

ŚwieżeSource: Space-Track

Epoka: Sep 12, 2026, 18:18 UTC

1 33722U 99025DHK 26255.76271236  .00000657  00000-0  27883-3 0  9995
2 33722  98.5660 267.3806 0157596 175.8827 184.3690 14.22054661960418

Śledź FENGYUN 1C DEB w czasie rzeczywistym z AllMySat

Download on the App Store